{"data":{"norad_id":55587,"intl_designator":"2023-020U","name":"STARLINK-5727","alt_names":[],"object_type":"PAYLOAD","status":"ACTIVE","operator":null,"country":"US","launch_date":"2023-02-12","launch_site_code":"AFETR","launch_vehicle":null,"mission":null,"orbit_class":"UNKNOWN","rcs_meters":null,"size_class":null,"mass_kg":null,"dimensions":null,"purposes":["comms"],"wikipedia_slug":null,"has_3d_model":false,"image_url":null,"decayed_at":null,"tle_current":{"epoch":"2026-09-20T13:21:37.930464Z","epoch_age_seconds":95463,"freshness":"FRESH","line1":"1 55587U 23020U   26263.55668901 -.00000537  00000+0 -99876-5 0  9996","line2":"2 55587  43.0051 344.7539 0001791 278.0223  82.0426 15.27574665198718","mean_motion":15.27574665,"eccentricity":0.0001791,"inclination_deg":43.0051,"raan_deg":344.7539,"arg_perigee_deg":278.0223,"mean_anomaly_deg":82.0426,"bstar":-9.9876e-6,"rev_number":19871,"period_min":94.267077936907,"perigee_km":481.83622970449,"apogee_km":484.29391228632,"semimajor_km":6861.2020709954,"source":"CELESTRAK","updated_at":"2026-09-21T09:00:33.267323Z"}}}